Torna al catalogo

STARLINK-11157

AttivoComunicazioniVLEO
NORAD 60122·PAYLOAD·🇺🇸 United States

Lanciato Jun 24, 2024 da Vandenberg Space Force Base

Loading…

Prossimi Passaggi (prossime 24 ore)

TLE

AggiornatoSource: CelesTrak SupGP

Epoca: Sep 14, 2026, 13:48 UTC

1 60122C 24118K   26257.57548611 -.00031286  00000+0 -25777-3 0  2575
2 60122  53.1575   9.9268 0001137  82.1778 242.0922 15.69720301    14

Traccia STARLINK-11157 in tempo reale con AllMySat

Download on the App Store